Clinton, MO

3:01 AM CST on December 07, 2019 (GMT -0600)
Clinton Memorial

Weather History for KGLY - November, 2019

Change the Weather History Date:

Tuesday, November 19, 2019

  Actual Average (KSZL) Record (KSZL)
Temperature  
Mean Temperature 50 °F -  
Max Temperature 64 °F 52 °F 71 °F (2011)
Min Temperature 37 °F 34 °F 18 °F (2014)
Degree Days  
Heating Degree Days 14    
Moisture  
Dew Point 36 °F    
Average Humidity 64    
Maximum Humidity 93    
Minimum Humidity 30    
Precipitation  
Precipitation 0.00 in - - ()
Sea Level Pressure  
Sea Level Pressure 29.92 in    
Wind  
Wind Speed 5 mph (West)    
Max Wind Speed 10 mph    
Max Gust Speed 18 mph    
Visibility 9 miles    
Events      
Averages and records for this station are not official NWS values.
T = Trace of Precipitation, MM = Missing Value Source: NWS Daily Summary

Daily Weather History Graph

Daily Weather History Graph

Search for Another Location

Airport or City:

Astronomy

Nov. 19, 2019 Rise Set
Actual Time 7:00 AM CST 4:59 PM CST
Civil Twilight 6:31 AM CST 5:27 PM CST
Nautical Twilight 5:59 AM CST 6:00 PM CST
Astronomical Twilight 5:28 AM CST 6:31 PM CST
Moon 11:55 PM CST (11/19) 1:11 PM CST (11/19)
Length of Visible Light 10h 56m
Length of Day
9h 59m
Waning Gibbous, 51% of the Moon is Illuminated
Nov 19
Waning Gibbous
Nov 19
Last Quarter
Nov 26
New
Dec 4
First Quarter
Dec 11
Full

Hourly Weather History & Observations

Time (CST) Temp. Windchill Dew Point Humidity Pressure Visibility Wind Dir Wind Speed Gust Speed Precip Events Conditions
12:15 AM 50.0 °F - 39.2 °F 66% 29.77 in 10.0 mi WNW 10.4 mph 18.4 mph N/A   Clear
1:35 AM 48.2 °F - 39.2 °F 71% 29.80 in 10.0 mi WNW 6.9 mph - N/A   Clear
1:55 AM 48.2 °F - 39.2 °F 71% 29.80 in 10.0 mi West 5.8 mph - N/A   Clear
2:15 AM 46.4 °F 42.9 °F 39.2 °F 76% 29.80 in 10.0 mi WNW 6.9 mph - N/A   Clear
2:35 AM 46.4 °F 42.4 °F 39.2 °F 76% 29.81 in 10.0 mi WNW 8.1 mph - N/A   Clear
2:55 AM 46.4 °F 42.9 °F 39.2 °F 76% 29.82 in 10.0 mi WNW 6.9 mph - N/A   Clear
3:15 AM 46.4 °F 44.3 °F 39.2 °F 76% 29.82 in 10.0 mi WNW 4.6 mph - N/A   Clear
3:35 AM 44.6 °F - 37.4 °F 76% 29.83 in 10.0 mi Calm Calm - N/A   Clear
3:55 AM 42.8 °F 40.1 °F 37.4 °F 81% 29.83 in 10.0 mi WSW 4.6 mph - N/A   Clear
4:15 AM 41.0 °F - 37.4 °F 87% 29.83 in 10.0 mi Calm Calm - N/A   Clear
4:55 AM 41.0 °F 39.0 °F 37.4 °F 87% 29.85 in 10.0 mi WSW 3.5 mph - N/A   Clear
5:15 AM 41.0 °F - 37.4 °F 87% 29.85 in 10.0 mi Calm Calm - N/A   Clear
5:55 AM 39.2 °F - 35.6 °F 87% 29.86 in 10.0 mi Calm Calm - N/A   Clear
6:15 AM 37.4 °F 32.8 °F 35.6 °F 93% 29.88 in 10.0 mi SW 5.8 mph - N/A   Clear
6:35 AM 37.4 °F 32.8 °F 35.6 °F 93% 29.89 in 10.0 mi WSW 5.8 mph - N/A   Clear
7:15 AM 37.4 °F - 35.6 °F 93% 29.91 in 10.0 mi Calm Calm - N/A   Clear
7:55 AM 41.0 °F 38.0 °F 39.2 °F 93% 29.92 in 10.0 mi West 4.6 mph - N/A   Clear
8:15 AM 44.6 °F 41.4 °F 39.2 °F 81% 29.93 in 10.0 mi West 5.8 mph - N/A   Clear
8:35 AM 46.4 °F 42.4 °F 39.2 °F 76% 29.94 in 10.0 mi West 8.1 mph - N/A   Clear
9:15 AM 48.2 °F - 41.0 °F 76% 29.95 in 10.0 mi WNW 5.8 mph - N/A   Clear
9:35 AM 50.0 °F - 41.0 °F 71% 29.96 in 10.0 mi WNW 5.8 mph - N/A   Clear
9:55 AM 53.6 °F - 41.0 °F 62% 29.97 in 10.0 mi WNW 6.9 mph - N/A   Clear
10:15 AM 55.4 °F - 41.0 °F 58% 29.97 in 10.0 mi NW 6.9 mph - N/A   Clear
10:35 AM 55.4 °F - 41.0 °F 58% 29.98 in 10.0 mi West 9.2 mph - N/A   Clear
10:55 AM 57.2 °F - 41.0 °F 55% 29.98 in 10.0 mi West 4.6 mph - N/A   Clear
11:15 AM 57.2 °F - 41.0 °F 55% 29.97 in 10.0 mi WSW 5.8 mph - N/A   Clear
11:35 AM 59.0 °F - 39.2 °F 48% 29.97 in 10.0 mi WSW 6.9 mph - N/A   Clear
11:55 AM 59.0 °F - 39.2 °F 48% 29.96 in 10.0 mi West 5.8 mph - N/A   Clear
12:35 PM 62.6 °F - 37.4 °F 39% 29.95 in 10.0 mi WNW 4.6 mph - N/A   Clear
12:55 PM 62.6 °F - 37.4 °F 39% 29.95 in 10.0 mi West 5.8 mph - N/A   Clear
1:15 PM 62.6 °F - 37.4 °F 39% 29.94 in 10.0 mi SW 5.8 mph - N/A   Clear
1:35 PM 62.6 °F - 35.6 °F 37% 29.94 in 10.0 mi Calm Calm - N/A   Clear
1:55 PM 64.4 °F - 32.0 °F 30% 29.93 in 10.0 mi NW 4.6 mph - N/A   Clear
2:35 PM 64.4 °F - 33.8 °F 32% 29.94 in 10.0 mi WSW 3.5 mph - N/A   Clear
3:35 PM 62.6 °F - 32.0 °F 32% 29.94 in 10.0 mi Calm Calm - N/A   Clear
4:35 PM 59.0 °F - 33.8 °F 39% 29.95 in 10.0 mi South 3.5 mph - N/A   Clear
4:55 PM 57.2 °F - 32.0 °F 38% 29.95 in 10.0 mi Calm Calm - N/A   Clear
5:15 PM 51.8 °F - 33.8 °F 50% 29.95 in 10.0 mi Calm Calm - N/A   Clear
5:35 PM 48.2 °F - 33.8 °F 58% 29.96 in 0.5 mi Calm Calm - N/A   Haze
5:55 PM 48.2 °F - 32.0 °F 54% 29.96 in 2.5 mi Calm Calm - N/A   Haze
6:15 PM 48.2 °F - 32.0 °F 54% 29.96 in 3.0 mi Calm Calm - N/A   Haze
6:35 PM 48.2 °F - 35.6 °F 62% 29.96 in 4.0 mi Calm Calm - N/A   Haze
7:35 PM 44.6 °F - 35.6 °F 71% 29.96 in 10.0 mi Calm Calm - N/A   Clear
8:15 PM 44.6 °F 42.2 °F 33.8 °F 66% 29.97 in 1.2 mi SE 4.6 mph - N/A   Haze
8:35 PM 44.6 °F - 33.8 °F 66% 29.97 in 5.0 mi Calm Calm - N/A   Haze
8:55 PM 46.4 °F - 32.0 °F 57% 29.98 in 1.0 mi Calm Calm - N/A   Haze
9:15 PM 44.6 °F - 32.0 °F 61% 29.98 in 9.0 mi Calm Calm - N/A   Clear
9:35 PM 48.2 °F - 32.0 °F 54% 29.98 in 2.5 mi Calm Calm - N/A   Haze
10:15 PM 44.6 °F - 32.0 °F 61% 29.99 in 10.0 mi Calm Calm - N/A   Clear
10:35 PM 41.0 °F - 32.0 °F 70% 29.99 in 10.0 mi Calm Calm - N/A   Clear
11:15 PM 39.2 °F - 32.0 °F 75% 30.00 in 10.0 mi Calm Calm - N/A   Clear
11:35 PM 39.2 °F - 32.0 °F 75% 30.00 in 10.0 mi Calm Calm - N/A   Clear
11:55 PM 39.2 °F 37.0 °F 32.0 °F 75% 30.00 in 10.0 mi ESE 3.5 mph - N/A   Clear